Wind_Speed
15 14 12 10 9 9 9 10 10 11 11 11 11 12 13 13 14 15 15 15 15 16 16 16 17 18 18 19 19 20 21 22 23 23 25 24 24 24 24 25 25 26 26
16 15 14 12 11 11 11 11 12 12 12 13 13 13 14 14 15 15 16 17 17 17 17 17 18 18 19 20 20 21 22 22 23 23 24 24 25 25 26 27 27 28 28
17 17 15 14 13 12 12 13 13 13 13 14 14 15 15 15 16 16 17 17 18 18 18 19 19 19 20 21 22 22 23 24 24 25 25 26 26 27 29 29 29 30 30
18 18 17 16 15 14 13 13 14 15 15 15 15 16 16 16 16 17 17 18 18 19 19 20 21 21 22 22 23 23 24 25 25 26 27 27 28 29 31 31 31 31 31
19 18 18 17 16 16 15 15 15 16 16 16 16 17 17 17 17 17 18 19 19 20 21 21 22 23 23 24 24 25 26 26 27 28 28 29 30 31 31 31 31 31 31
20 20 19 19 18 17 17 17 17 18 18 18 19 18 18 18 18 19 19 20 21 22 23 23 24 25 25 25 26 27 27 28 28 29 29 30 30 31 30 31 31 31 31
22 21 20 20 20 19 18 18 19 19 20 20 20 19 19 20 20 20 20 21 22 23 23 24 24 25 26 26 27 28 28 29 29 30 31 31 31 31 31 31 31 31 32
22 22 22 21 21 21 21 20 20 20 21 21 21 21 21 21 21 21 22 22 23 24 24 24 24 26 26 27 27 28 28 30 30 30 30 30 31 31 30 31 31 32 33
24 24 23 23 23 22 23 22 21 21 22 22 22 22 22 23 23 23 23 24 24 24 25 25 26 26 27 28 28 29 30 30 31 31 31 31 31 31 32 32 32 32 33
25 25 25 25 24 24 24 23 23 22 23 23 23 23 23 24 24 25 26 25 25 26 26 27 27 27 28 29 30 30 31 31 31 32 31 30 31 31 31 32 32 33 33
27 27 27 26 26 25 25 24 24 25 25 25 25 24 25 25 25 26 27 27 27 27 28 28 29 29 29 30 31 32 32 32 32 32 32 32 31 31 32 32 33 33 33
29 28 28 27 27 27 26 26 26 26 25 26 26 26 26 25 26 26 27 28 28 28 29 30 30 31 31 32 32 33 33 34 34 34 33 33 32 32 32 33 33 33 32
29 29 28 28 28 27 27 27 27 27 26 26 26 26 27 27 27 27 28 30 30 30 31 31 31 32 32 33 33 34 34 34 34 34 33 33 33 33 33 32 33 33 33
29 29 29 28 28 28 28 28 28 27 27 27 28 28 28 28 28 29 29 30 30 31 31 32 32 32 32 32 33 34 34 34 34 34 34 34 34 34 34 33 33 33 33
29 29 29 29 29 30 29 29 29 28 28 29 29 29 30 30 30 30 30 31 32 32 32 33 33 33 33 34 34 34 35 35 35 34 34 34 34 34 34 34 34 34 35
30 30 30 30 30 30 29 30 30 30 30 30 30 31 31 31 31 31 31 32 32 33 33 33 33 33 34 35 35 35 36 35 34 34 34 34 34 35 35 34 34 34 34
30 31 31 31 31 30 30 30 31 31 31 31 32 32 33 32 32 32 32 32 33 34 34 34 34 35 35 35 35 35 35 35 34 34 34 33 33 33 33 33 33 33 33
31 31 31 31 31 31 31 31 32 32 32 32 33 33 33 33 33 33 33 34 34 35 35 35 35 35 36 36 36 35 35 34 33 33 33 33 33 33 33 33 33 33 33
30 30 31 31 31 32 32 32 32 32 32 32 32 32 33 33 33 33 33 34 35 35 35 35 35 35 35 35 35 34 33 33 32 32 32 33 33 33 33 33 33 33 32
30 30 31 31 32 32 32 32 32 32 32 32 33 33 33 33 33 33 34 35 35 35 35 35 35 35 35 35 34 33 33 33 33 33 33 33 33 33 33 33 33 32 32
30 31 32 32 32 32 32 32 32 33 33 32 33 33 33 33 33 33 34 34 35 35 35 35 34 34 34 34 33 33 34 34 33 33 33 33 33 32 32 32 32 32 32
32 32 32 32 32 32 32 32 32 32 32 32 32 33 33 33 33 33 33 34 34 33 33 33 33 34 34 34 33 33 33 33 33 33 32 32 32 32 32 32 32 32 32
32 32 32 32 32 33 33 33 32 32 32 32 32 33 34 33 33 33 33 33 33 33 32 32 33 33 33 33 33 33 33 33 32 32 32 32 32 32 32 32 32 31 31
32 32 32 32 32 33 32 32 32 32 32 32 32 33 32 32 32 33 33 32 32 32 32 32 32 32 31 31 32 32 32 32 32 31 31 31 31 31 31 31 31 32 31
30 30 31 31 31 31 31 31 31 31 32 32 32 32 31 31 32 32 32 31 32 32 32 33 32 32 31 31 32 32 32 31 31 30 30 30 31 31 31 32 32 32 32
29 29 29 29 30 30 30 30 30 31 31 31 31 31 30 30 30 30 30 30 31 32 32 32 32 32 32 32 32 32 32 31 30 30 31 31 31 32 32 32 32 32 33
Wind_Direction
339 336 332 326 322 319 318 316 313 308 308 306 293 286 284 282 282 284 286 287 286 287 287 288 289 289 290 290 288 288 287 287 288 288 289 290 289 289 290 290 291 293 294
340 337 331 325 322 320 317 314 311 311 308 308 303 295 291 288 286 286 286 286 286 286 288 289 291 292 293 292 291 291 290 290 290 291 291 291 291 291 291 292 293 295 295
339 337 331 325 319 316 317 315 311 309 307 306 304 300 295 291 290 290 289 289 289 287 289 291 293 294 294 293 292 292 292 292 292 292 292 292 293 291 292 292 292 294 294
336 334 333 328 323 318 317 317 315 313 310 306 305 301 297 293 291 292 294 294 292 290 289 291 293 294 294 294 295 295 294 295 294 292 292 291 292 291 292 292 291 293 294
333 333 333 331 325 321 317 314 313 312 310 308 307 305 300 296 294 293 294 296 294 292 291 292 294 294 295 294 294 295 295 295 294 293 292 292 293 292 292 292 293 294 294
331 330 328 326 322 318 314 312 311 310 308 307 305 302 300 297 293 291 292 294 294 293 291 291 292 292 293 294 295 295 294 295 294 294 294 294 295 293 293 294 293 294 295
324 324 324 323 321 319 315 311 311 310 307 307 306 300 297 297 296 294 293 295 294 294 292 292 292 294 294 294 294 294 295 295 296 295 294 294 295 295 294 295 294 294 296
317 318 318 318 318 316 314 312 310 309 307 306 305 302 298 297 296 295 295 297 297 297 295 294 295 297 298 296 295 295 296 296 297 297 298 297 296 296 297 297 296 297 297
311 312 311 313 314 313 312 311 310 309 307 306 305 305 301 298 296 295 295 297 299 300 300 299 298 298 299 298 296 296 296 297 298 298 298 298 297 297 297 297 297 297 297
309 308 307 307 308 309 310 310 310 310 309 306 303 302 301 299 296 295 296 297 298 300 299 298 297 297 297 297 297 298 298 298 299 299 299 298 298 297 297 297 296 296 296
305 305 305 304 305 305 306 306 307 307 307 305 302 300 299 300 300 298 298 298 299 300 299 298 297 297 298 299 299 299 298 298 299 299 298 297 297 297 298 298 297 296 296
302 302 301 302 303 303 304 304 305 305 305 305 303 301 301 299 299 299 298 297 297 299 299 299 298 297 298 298 299 298 297 298 299 299 299 298 296 297 298 298 298 297 296
299 298 298 299 300 300 301 302 301 303 304 303 302 301 300 300 299 300 298 297 297 298 298 299 299 298 298 299 299 299 299 299 299 299 297 297 298 298 298 297 297 296 296
297 297 296 297 298 298 300 302 303 303 303 304 303 302 301 301 301 300 300 299 298 298 299 299 299 299 299 300 300 300 300 300 299 299 298 298 298 298 298 297 297 296 296
296 296 296 297 297 299 300 301 302 302 301 301 302 302 301 300 300 300 300 300 300 300 300 300 299 299 299 300 300 300 300 300 300 299 299 299 299 298 298 298 298 297 297
294 295 295 296 297 298 300 300 301 301 302 301 301 301 301 300 300 300 299 299 300 300 300 300 300 300 300 300 300 300 300 299 299 299 299 299 299 299 299 298 298 298 298
292 293 293 294 295 297 299 299 300 300 300 299 299 300 301 300 299 299 298 298 299 299 299 300 301 302 302 302 302 301 299 298 298 299 299 299 299 299 299 299 299 299 299
292 292 292 294 296 297 298 299 299 300 299 299 299 300 301 300 299 298 298 298 299 299 300 301 302 302 302 303 302 301 299 299 298 298 299 300 300 299 299 299 299 299 299
292 292 293 294 296 297 298 298 298 299 299 299 299 300 299 299 299 299 298 299 300 301 301 301 301 301 302 302 302 300 299 299 298 299 300 300 299 298 298 299 299 299 299
292 293 293 294 295 296 296 297 297 298 299 300 300 300 299 299 299 299 298 299 300 301 301 302 303 303 303 302 301 299 299 300 299 299 300 300 299 299 299 300 300 300 299
292 293 294 294 295 295 296 297 298 299 300 301 301 301 300 299 299 300 300 300 301 301 302 303 303 303 303 303 301 300 300 301 301 301 301 301 301 300 300 301 300 300 300
292 293 294 294 294 295 296 298 299 300 300 301 301 302 302 301 301 301 301 302 303 303 303 304 304 304 304 303 302 302 301 301 300 300 301 300 300 300 301 301 301 300 299
293 293 293 294 294 295 296 297 299 300 301 302 302 303 303 302 302 302 302 303 303 303 304 305 306 306 305 304 303 303 303 302 302 301 301 301 301 301 301 301 301 301 300
292 292 293 293 294 295 296 297 298 299 300 302 302 303 303 303 302 302 303 303 304 305 306 306 307 307 306 306 305 304 303 304 304 303 302 301 302 302 302 302 302 303 301
293 293 294 294 294 296 297 298 298 299 300 302 303 302 303 303 303 303 304 304 305 306 306 307 307 306 304 304 304 304 305 305 305 304 303 303 303 303 302 302 302 302 301
294 294 295 295 296 296 297 298 299 301 301 302 302 302 302 302 304 304 305 306 307 307 306 306 306 305 304 305 305 305 306 306 305 304 304 304 303 302 302 303 303 302 302
Height
5895 5893 5891 5890 5888 5887 5886 5885 5884 5883 5882 5881 5880 5880 5880 5880 5879 5879 5879 5878 5877 5877 5876 5875 5874 5873 5872 5871 5870 5869 5868 5867 5866 5864 5862 5861 5860 5858 5857 5855 5853 5852 5850
5895 5892 5890 5889 5887 5886 5885 5884 5883 5881 5880 5879 5878 5877 5877 5876 5876 5875 5875 5874 5874 5873 5872 5871 5870 5869 5868 5867 5866 5864 5863 5862 5860 5859 5857 5855 5853 5852 5850 5848 5846 5845 5842
5894 5892 5889 5887 5886 5885 5883 5882 5881 5879 5878 5877 5876 5875 5874 5873 5872 5872 5871 5870 5869 5869 5868 5867 5866 5865 5863 5862 5861 5859 5858 5856 5854 5853 5851 5849 5847 5845 5843 5841 5839 5837 5835
5893 5890 5888 5886 5884 5883 5881 5880 5878 5877 5875 5874 5873 5872 5870 5869 5869 5868 5867 5866 5865 5864 5863 5862 5861 5860 5858 5857 5855 5853 5851 5850 5848 5846 5844 5842 5840 5838 5836 5834 5831 5829 5827
5891 5889 5886 5884 5882 5880 5879 5877 5875 5874 5872 5871 5869 5868 5867 5866 5865 5864 5863 5862 5861 5860 5859 5857 5856 5855 5853 5851 5849 5847 5845 5843 5841 5839 5837 5835 5833 5830 5828 5826 5823 5821 5818
5889 5887 5885 5882 5880 5878 5876 5874 5872 5871 5869 5868 5866 5864 5863 5862 5861 5860 5859 5857 5856 5854 5853 5852 5851 5849 5847 5845 5843 5841 5839 5837 5834 5832 5829 5827 5825 5822 5820 5817 5815 5812 5810
5886 5884 5882 5879 5877 5875 5873 5871 5869 5867 5866 5864 5862 5860 5858 5857 5856 5855 5854 5852 5850 5848 5847 5846 5844 5842 5840 5838 5836 5834 5832 5829 5827 5824 5822 5819 5817 5814 5811 5809 5806 5804 5801
5883 5881 5878 5876 5874 5871 5869 5867 5865 5863 5861 5860 5858 5855 5854 5853 5851 5850 5848 5847 5845 5843 5841 5840 5838 5836 5834 5832 5829 5827 5825 5822 5819 5817 5814 5811 5808 5806 5803 5801 5798 5795 5793
5880 5877 5874 5872 5870 5868 5865 5863 5861 5859 5857 5855 5853 5851 5849 5847 5846 5845 5843 5842 5840 5838 5836 5834 5832 5829 5827 5825 5823 5820 5818 5815 5812 5809 5806 5803 5800 5797 5795 5792 5789 5787 5784
5875 5873 5870 5868 5866 5863 5861 5859 5856 5854 5852 5850 5848 5846 5844 5842 5840 5839 5837 5836 5834 5832 5830 5827 5825 5822 5820 5818 5815 5812 5810 5807 5804 5802 5799 5796 5793 5789 5786 5784 5781 5778 5775
5870 5868 5865 5863 5861 5858 5856 5853 5851 5849 5847 5845 5843 5841 5839 5837 5835 5833 5831 5829 5827 5825 5823 5821 5818 5815 5813 5810 5807 5805 5802 5799 5796 5793 5791 5788 5785 5781 5778 5775 5772 5769 5766
5865 5862 5860 5858 5855 5853 5851 5848 5846 5844 5841 5839 5837 5835 5833 5831 5829 5827 5825 5823 5820 5818 5816 5813 5810 5808 5805 5802 5799 5796 5793 5790 5787 5785 5782 5779 5776 5772 5769 5766 5763 5760 5757
5858 5856 5854 5852 5849 5847 5845 5842 5840 5838 5835 5833 5831 5829 5827 5825 5822 5820 5818 5815 5813 5811 5808 5805 5803 5800 5797 5794 5791 5788 5785 5782 5779 5776 5773 5770 5767 5764 5760 5757 5754 5751 5748
5851 5849 5847 5845 5843 5840 5838 5836 5833 5831 5828 5826 5824 5822 5820 5818 5815 5813 5810 5808 5805 5803 5800 5797 5794 5791 5788 5785 5782 5779 5776 5773 5770 5767 5763 5760 5757 5754 5751 5748 5745 5742 5738
5845 5842 5840 5839 5836 5834 5832 5829 5827 5824 5822 5819 5817 5815 5812 5810 5808 5805 5802 5800 5797 5794 5791 5789 5786 5783 5780 5777 5773 5770 5767 5764 5761 5757 5754 5751 5748 5745 5741 5738 5735 5732 5729
5838 5835 5833 5831 5829 5827 5824 5822 5819 5817 5814 5812 5809 5807 5804 5802 5799 5797 5794 5791 5788 5786 5783 5780 5777 5774 5771 5767 5764 5761 5757 5754 5751 5748 5745 5741 5738 5735 5732 5728 5725 5722 5719
5830 5828 5826 5824 5822 5819 5817 5815 5812 5810 5807 5804 5802 5799 5796 5794 5791 5788 5786 5783 5780 5777 5774 5771 5768 5764 5761 5758 5754 5751 5747 5744 5741 5738 5735 5731 5728 5725 5722 5719 5715 5712 5709
5822 5820 5818 5816 5814 5811 5809 5807 5804 5802 5799 5796 5794 5791 5788 5785 5782 5780 5777 5774 5771 5768 5765 5762 5758 5755 5752 5748 5745 5741 5738 5734 5731 5728 5725 5722 5719 5716 5712 5709 5706 5702 5699
5815 5812 5810 5808 5806 5804 5801 5799 5796 5793 5791 5788 5785 5782 5779 5777 5774 5771 5768 5766 5762 5759 5756 5753 5749 5746 5742 5739 5735 5731 5728 5725 5722 5718 5715 5712 5709 5706 5703 5700 5696 5693 5690
5807 5804 5802 5800 5798 5796 5793 5791 5788 5785 5783 5780 5777 5774 5771 5768 5765 5763 5760 5756 5753 5750 5747 5743 5740 5736 5733 5730 5726 5722 5719 5716 5713 5709 5706 5703 5700 5696 5693 5690 5687 5684 5680
5799 5796 5794 5792 5790 5787 5785 5782 5780 5777 5774 5771 5769 5765 5763 5760 5757 5754 5751 5747 5744 5741 5737 5734 5731 5727 5724 5720 5717 5714 5710 5707 5703 5700 5697 5693 5690 5687 5684 5681 5677 5674 5671
5790 5788 5786 5783 5781 5778 5776 5773 5771 5768 5765 5763 5760 5757 5754 5751 5748 5745 5742 5738 5735 5732 5728 5725 5722 5718 5715 5711 5708 5704 5701 5697 5694 5690 5687 5684 5681 5678 5675 5671 5668 5665 5662
5781 5779 5777 5774 5772 5769 5767 5765 5762 5760 5757 5754 5751 5748 5745 5742 5739 5736 5732 5729 5726 5723 5719 5716 5713 5709 5705 5702 5698 5695 5692 5688 5685 5681 5678 5675 5672 5668 5665 5662 5659 5655 5652
5772 5770 5768 5766 5763 5761 5758 5756 5753 5751 5748 5745 5742 5739 5736 5733 5730 5727 5724 5720 5717 5714 5711 5707 5704 5700 5697 5693 5690 5686 5683 5679 5676 5672 5669 5666 5663 5659 5656 5653 5649 5646 5643
5764 5761 5759 5757 5755 5752 5750 5747 5745 5742 5740 5737 5734 5731 5728 5725 5722 5719 5715 5712 5709 5706 5702 5699 5695 5692 5688 5685 5681 5677 5674 5670 5667 5664 5660 5657 5654 5650 5647 5644 5640 5637 5633
5756 5753 5751 5749 5746 5744 5742 5739 5736 5734 5731 5728 5726 5722 5720 5717 5713 5710 5707 5704 5700 5697 5694 5690 5687 5683 5679 5676 5672 5669 5665 5662 5658 5655 5651 5648 5645 5641 5638 5634 5631 5627 5624